YO8CLN-10 Weather Reports


Display with metric or nautical units.
time (UTC)temp
F
wind
direction
speed
MPH
gust
MPH
rain 1hr
in
rain 24hr
in
rain mn
in
humidity
%
barometer
mb
20260507133258 74 292 2.0 2.0 0.00 0.00 0.00 41 1111.0
20260507132257 74 180 0.0 2.0 0.00 0.00 0.00 40 1111.0
20260507131257 75 270 0.0 4.0 0.00 0.00 0.00 39 1111.0
20260507130256 75 270 2.0 2.0 0.00 0.00 0.00 39 1111.0
20260507125255 76 0 0.0 4.0 0.00 0.00 0.00 38 1111.0
20260507124255 77 292 2.0 5.0 0.00 0.00 0.00 37 1111.0
20260507123254 78 315 6.0 9.0 0.00 0.00 0.00 38 1111.0
20260507122254 78 67 0.0 5.0 0.00 0.00 0.00 40 1111.0
20260507121253 77 270 1.0 4.0 0.00 0.00 0.00 40 1111.0
20260507120253 76 270 2.0 7.0 0.00 0.00 0.00 40 1111.0
20260507115252 77 270 3.0 3.0 0.00 0.00 0.00 38 1111.0
20260507114251 77 315 3.0 3.0 0.00 0.00 0.00 38 1111.0
20260507113251 76 22 1.0 1.0 0.00 0.00 0.00 38 1111.0
20260507112250 75 315 0.0 4.0 0.00 0.00 0.00 38 1111.0
20260507111250 75 315 0.0 3.0 0.00 0.00 0.00 38 1111.0
20260507110249 76 22 4.0 4.0 0.00 0.00 0.00 37 1111.0
20260507105249 75 337 2.0 2.0 0.00 0.00 0.00 39 1111.0
20260507104248 75 202 3.0 3.0 0.00 0.00 0.00 39 1111.0
20260507103247 74 180 1.0 3.0 0.00 0.00 0.00 38 1111.0
20260507102247 74 247 0.0 0.0 0.00 0.00 0.00 38 1111.0
20260507101246 76 337 4.0 4.0 0.00 0.00 0.00 38 1111.0
20260507100246 78 315 1.0 2.0 0.00 0.00 0.00 36 1111.0
20260507095245 79 0 0.0 4.0 0.00 0.00 0.00 36 1111.0
20260507094245 78 247 0.0 8.0 0.00 0.00 0.00 38 1111.0
20260507093244 77 202 5.0 5.0 0.00 0.00 0.00 38 1111.0
20260507092243 75 135 0.0 1.0 0.00 0.00 0.00 39 1111.0
20260507091243 75 112 0.0 3.0 0.00 0.00 0.00 40 1111.0
20260507090242 75 22 3.0 4.0 0.00 0.00 0.00 40 1111.0
20260507085822 76 22 0.0 2.0 0.00 0.00 0.00 40 1111.0
20260507085242 76 67 0.0 0.0 0.00 0.00 0.00 40 1111.0
20260507084241 77 315 2.0 4.0 0.00 0.00 0.00 41 1111.0
20260507083240 76 315 2.0 2.0 0.00 0.00 0.00 42 1111.0
20260507082240 75 292 0.0 2.0 0.00 0.00 0.00 44 1111.0
20260507081239 74 270 0.0 2.0 0.00 0.00 0.00 45 1111.0
20260507080239 73 67 0.0 5.0 0.00 0.00 0.00 47 1111.0
20260507075238 71 67 0.0 1.0 0.00 0.00 0.00 49 1111.0
20260507074238 70 0 1.0 2.0 0.00 0.00 0.00 51 1111.0
20260507073237 68 315 0.0 0.0 0.00 0.00 0.00 53 1111.0
20260507072236 68 315 0.0 0.0 0.00 0.00 0.00 55 1111.0
20260507071236 67 315 1.0 2.0 0.00 0.00 0.00 57 1111.0
20260507070235 65 0 2.0 2.0 0.00 0.00 0.00 58 1111.0
20260507065235 63 90 1.0 2.0 0.00 0.00 0.00 59 1111.0
20260507064234 62 90 0.0 0.0 0.00 0.00 0.00 61 1111.0
20260507063447 61 90 0.0 0.0 0.00 0.00 0.00 61 1111.0
20260507063234 61 90 0.0 0.0 0.00 0.00 0.00 61 1111.0
20260507062233 59 90 1.0 1.0 0.00 0.00 0.00 65 1111.0
20260507061232 57 180 0.0 0.0 0.00 0.00 0.00 67 1111.0
20260507060232 55 180 0.0 0.0 0.00 0.00 0.00 69 1111.0
20260507055231 53 180 0.0 0.0 0.00 0.00 0.00 70 1111.0
20260507054231 52 180 0.0 0.0 0.00 0.00 0.00 71 1111.0
20260507053230 51 180 0.0 0.0 0.00 0.00 0.00 71 1111.0
20260507052230 51 180 1.0 1.0 0.00 0.00 0.00 71 1111.0
20260507051229 50 180 0.0 0.0 0.00 0.00 0.00 72 1111.0
20260507050228 50 180 0.0 0.0 0.00 0.00 0.00 72 1111.0
20260507045228 49 180 0.0 0.0 0.00 0.00 0.00 73 1111.0
20260507044227 48 180 0.0 1.0 0.00 0.00 0.00 74 1111.0
20260507043227 48 180 2.0 2.0 0.00 0.00 0.00 74 1111.0
20260507042226 47 180 0.0 0.0 0.00 0.00 0.00 75 1111.0
20260507041226 46 180 0.0 0.0 0.00 0.00 0.00 78 1111.0
20260507040225 44 180 0.0 0.0 0.00 0.00 0.00 81 1111.0
20260507035224 39 180 0.0 0.0 0.00 0.00 0.00 82 1111.0
20260507034224 36 180 0.0 0.0 0.00 0.00 0.00 76 1111.0
20260507033223 36 180 0.0 0.0 0.00 0.00 0.00 75 1111.0
20260507032223 36 180 0.0 0.0 0.00 0.00 0.00 74 1111.0
20260507031222 36 180 0.0 0.0 0.00 0.00 0.00 74 1111.0
20260507030222 36 180 0.0 0.0 0.00 0.00 0.00 74 1111.0
20260507025221 36 180 0.0 0.0 0.00 0.00 0.00 74 1111.0
20260507024221 36 180 0.0 0.0 0.00 0.00 0.00 74 1111.0
20260507023220 36 180 2.0 2.0 0.00 0.00 0.00 74 1111.0
20260507022219 36 180 0.0 0.0 0.00 0.00 0.00 73 1111.0
20260507021219 37 180 0.0 0.0 0.00 0.00 0.00 73 1111.0
20260507020218 37 180 0.0 0.0 0.00 0.00 0.00 73 1111.0
20260507015218 37 180 0.0 0.0 0.00 0.00 0.00 73 1111.0
20260507014217 37 180 0.0 0.0 0.00 0.00 0.00 73 1111.0
20260507013216 37 180 0.0 1.0 0.00 0.00 0.00 72 1111.0
20260507012216 37 180 1.0 1.0 0.00 0.00 0.00 72 1111.0
20260507011215 37 180 0.0 0.0 0.00 0.00 0.00 72 1111.0
20260507010216 38 180 0.0 1.0 0.00 0.00 0.00 71 1111.0
20260507005214 38 180 0.0 0.0 0.00 0.00 0.00 71 1111.0
20260507004214 38 180 1.0 1.0 0.00 0.00 0.00 70 1111.0
20260507003213 39 180 0.0 1.0 0.00 0.00 0.00 70 1111.0
20260507002213 39 180 0.0 0.0 0.00 0.00 0.00 69 1111.0
20260507001212 39 180 0.0 0.0 0.00 0.00 0.00 69 1111.0
20260507000212 40 180 0.0 0.0 0.00 0.00 0.00 69 1111.0
20260506235211 40 180 0.0 1.0 0.00 0.00 0.00 69 1111.0
20260506234210 40 180 0.0 0.0 0.00 0.00 0.00 67 1111.0
20260506233210 40 180 0.0 0.0 0.00 0.00 0.00 67 1111.0
20260506232209 41 180 0.0 0.0 0.00 0.00 0.00 67 1111.0
20260506231209 41 180 0.0 1.0 0.00 0.00 0.00 66 1111.0
20260506230208 42 180 0.0 0.0 0.00 0.00 0.00 65 1111.0
20260506225207 42 180 0.0 1.0 0.00 0.00 0.00 64 1111.0
20260506224207 43 180 0.0 0.0 0.00 0.00 0.00 63 1111.0
20260506223206 44 180 0.0 0.0 0.00 0.00 0.00 62 1111.0
20260506222206 44 180 0.0 1.0 0.00 0.00 0.00 62 1111.0
20260506221205 45 180 0.0 0.0 0.00 0.00 0.00 62 1111.0
20260506220204 46 180 1.0 1.0 0.00 0.00 0.00 62 1111.0
20260506215204 46 180 0.0 0.0 0.00 0.00 0.00 61 1111.0
20260506214203 47 180 0.0 0.0 0.00 0.00 0.00 61 1111.0
20260506213203 47 180 0.0 0.0 0.00 0.00 0.00 62 1111.0
20260506212202 46 180 0.0 1.0 0.00 0.00 0.00 62 1111.0
20260506211202 46 202 0.0 0.0 0.00 0.00 0.00 61 1111.0
20260506210201 46 202 0.0 2.0 0.00 0.00 0.00 61 1111.0
20260506205201 46 202 0.0 4.0 0.00 0.00 0.00 61 1111.0
20260506204200 46 202 1.0 2.0 0.00 0.00 0.00 58 1111.0
20260506203159 46 202 0.0 0.0 0.00 0.00 0.00 56 1111.0
20260506202159 48 202 1.0 1.0 0.00 0.00 0.00 55 1111.0
20260506201158 48 202 0.0 1.0 0.00 0.00 0.00 54 1111.0
20260506200158 48 202 0.0 0.0 0.00 0.00 0.00 54 1111.0
20260506195157 49 202 0.0 0.0 0.00 0.00 0.00 54 1111.0
20260506194157 49 202 0.0 0.0 0.00 0.00 0.00 53 1111.0
20260506193156 49 202 0.0 0.0 0.00 0.00 0.00 53 1111.0
20260506192155 49 202 0.0 1.0 0.00 0.00 0.00 52 1111.0
20260506191155 49 202 0.0 0.0 0.00 0.00 0.00 50 1111.0
20260506190154 50 202 0.0 0.0 0.00 0.00 0.00 49 1111.0
20260506185154 50 202 0.0 0.0 0.00 0.00 0.00 47 1111.0
20260506184153 51 202 0.0 0.0 0.00 0.00 0.00 46 1111.0
20260506183153 52 202 0.0 0.0 0.00 0.00 0.00 43 1111.0
20260506182152 53 202 0.0 0.0 0.00 0.00 0.00 42 1111.0
20260506181151 54 202 0.0 0.0 0.00 0.00 0.00 41 1111.0
20260506180151 55 202 0.0 0.0 0.00 0.00 0.00 39 1111.0
20260506175150 57 202 0.0 0.0 0.00 0.00 0.00 38 1111.0
20260506174150 58 202 0.0 0.0 0.00 0.00 0.00 36 1111.0
20260506173149 60 202 0.0 0.0 0.00 0.00 0.00 34 1111.0
20260506172149 62 202 0.0 0.0 0.00 0.00 0.00 33 1111.0
20260506171148 64 202 0.0 0.0 0.00 0.00 0.00 32 1111.0
20260506170147 65 202 0.0 0.0 0.00 0.00 0.00 30 1111.0
20260506165147 68 180 0.0 0.0 0.00 0.00 0.00 26 1111.0
20260506164146 71 202 2.0 3.0 0.00 0.00 0.00 25 1111.0
20260506163146 73 202 0.0 4.0 0.00 0.00 0.00 24 1111.0
20260506162145 75 202 6.0 6.0 0.00 0.00 0.00 23 1111.0
20260506161145 75 202 6.0 6.0 0.00 0.00 0.00 23 1111.0
20260506160144 77 180 4.0 4.0 0.00 0.00 0.00 24 1111.0
20260506155143 77 202 4.0 4.0 0.00 0.00 0.00 24 1111.0
20260506154143 78 180 3.0 3.0 0.00 0.00 0.00 24 1111.0
20260506153142 78 157 1.0 4.0 0.00 0.00 0.00 25 1111.0
20260506152142 78 157 3.0 7.0 0.00 0.00 0.00 26 1111.0
20260506151141 79 180 1.0 7.0 0.00 0.00 0.00 25 1111.0
20260506150141 79 157 2.0 6.0 0.00 0.00 0.00 24 1111.0
20260506145140 78 202 3.0 6.0 0.00 0.00 0.00 26 1111.0
20260506144139 78 202 8.0 20.0 0.00 0.00 0.00 27 1111.0
20260506143139 76 22 0.0 6.0 0.00 0.00 0.00 27 1111.0
20260506142138 76 180 4.0 4.0 0.00 0.00 0.00 28 1111.0
20260506141138 75 270 3.0 8.0 0.00 0.00 0.00 29 1111.0
20260506140539 74 315 8.0 8.0 0.00 0.00 0.00 30 1111.0
20260506140137 74 270 2.0 2.0 0.00 0.00 0.00 31 1111.0
20260506135136 72 157 2.0 2.0 0.00 0.00 0.00 31 1111.0
20260506134136 71 202 0.0 3.0 0.00 0.00 0.00 31 1111.0